Content
SEND FEEDBACK

Daily
Averages
Monthly
Summary
France

AVIGNON, FRANCE


Home > Europe > France
Elevation: 187 feet     Latitude: 44 00N     Longitude: 004 45E

WEATHER
 
SELECT A DAY
Number of Records: 166,878;   Date Range: 5/17/04 - 7/9/14
 
SHARE

PRINT THIS DATA

[ ← Previous Day ]
WEATHER ALMANAC - JUNE 19, 2013
[ Next Day → ]
[ °C ]   °F
Weather ElementAverageHighLow
Temperature73.2 °F82.4 °F (12:00 pm)66.2 °F (4:30 am)
Dewpoint61.9 °F66.2 °F (1:00 pm)55.4 °F (6:30 am)
Humidity68.6 %83 % (4:30 am)42 % (7:00 am)
Barometer29.91 in29.98 in (10:00 pm)29.80 in (6:30 am)
Wind Speed8.1 mph19.6 mph (2:00 pm)
Wind Gust23 mph (8:00 am)
Weather ElementAverage
Visibility6.2 mi
Wind DirectionSSE (147.2 °)

Weather ElementTotal
Precipitation---
Cooling Degree Days9.3 (Base 65)
Growing Degree Days24.3 (Base 50)
Averaged from 47 records on June 19, 2013
WEATHER CONDITIONS BREAKOUT
WIND DIRECTION BREAKOUT
WEATHER BY HOUR - JUNE 19, 2013
[ °C ]   °F
Local TimeTemperatureDewpointHumidityBarometerVisibilityWind DirectionWind SpeedGust SpeedPrecipitationEventsConditions
12:30 AM69.8 °F60.8 °F73 %29.89 in6.2 miVariable3.5 mph
1:00 AM68.0 °F60.8 °F78 %29.89 in6.2 miVariable2.3 mph
1:30 AM68.0 °F60.8 °F78 %29.86 in6.2 miVariable1.2 mph
2:00 AM69.8 °F60.8 °F73 %29.86 in6.2 miVariable3.5 mph
2:30 AM69.8 °F59.0 °F68 %29.86 in6.2 miSSE (150°)1.2 mph
3:00 AM68.0 °F60.8 °F78 %29.86 in6.2 miCalm
3:30 AM68.0 °F60.8 °F78 %29.86 in6.2 miNW (310°)3.5 mph
4:00 AM68.0 °F60.8 °F78 %29.86 in6.2 miVariable3.5 mph
4:30 AM66.2 °F60.8 °F83 %29.86 in6.2 miVariable3.5 mph
5:00 AM66.2 °F59.0 °F78 %29.86 in6.2 miSW (220°)1.2 mph
5:30 AM66.2 °F60.8 °F83 %29.83 in6.2 miSSE (150°)6.9 mph
6:00 AM73.4 °F59.0 °F61 %29.83 in6.2 miSE (140°)8.1 mph
6:30 AM78.8 °F55.4 °F44 %29.80 in6.2 miESE (110°)12.7 mph
7:00 AM80.6 °F55.4 °F42 %29.83 in6.2 miSE (130°)10.4 mph
7:30 AM77.0 °F57.2 °F50 %29.83 in6.2 miSouth (190°)5.8 mph
8:00 AM73.4 °F59.0 °F61 %29.86 in6.2 miWSW (250°)10.4 mph23.0 mph
8:30 AM73.4 °F60.8 °F65 %29.86 in6.2 miVariable3.5 mph
9:00 AM71.6 °F62.6 °F73 %29.89 in6.2 miNW (310°)3.5 mphMostly Cloudy
9:30 AM71.6 °F64.4 °F78 %29.89 in6.2 miVariable2.3 mph
10:00 AM73.4 °F64.4 °F73 %29.89 in6.2 miVariable2.3 mph
10:30 AM77.0 °F64.4 °F65 %29.89 in6.2 miSouth (170°)9.2 mph
11:00 AM78.8 °F62.6 °F57 %29.92 in6.2 miSouth (170°)11.5 mph
11:30 AM80.6 °F64.4 °F58 %29.92 in6.2 miSouth (180°)15.0 mph
12:00 PM82.4 °F62.6 °F51 %29.92 in6.2 miSSE (160°)16.1 mph
12:30 PM80.6 °F62.6 °F54 %29.92 in6.2 miSouth (180°)15.0 mphMostly Cloudy
1:00 PM78.8 °F66.2 °F65 %29.92 in6.2 miSSW (200°)16.1 mphMostly Cloudy
1:30 PM78.8 °F66.2 °F65 %29.92 in6.2 miSSW (200°)16.1 mphMostly Cloudy
2:00 PM75.2 °F64.4 °F69 %29.92 in6.2 miSouth (180°)19.6 mphPartly Cloudy
2:30 PM75.2 °F62.6 °F65 %29.92 in6.2 miSouth (180°)18.4 mphPartly Cloudy
3:00 PM77.0 °F64.4 °F65 %29.92 in6.2 miSouth (180°)19.6 mph
3:30 PM75.2 °F62.6 °F65 %29.95 in6.2 miSSW (200°)12.7 mphMostly Cloudy
4:00 PM73.4 °F62.6 °F69 %29.95 in6.2 miSouth (190°)9.2 mphMostly Cloudy
4:30 PM75.2 °F64.4 °F69 %29.95 in6.2 miSouth (170°)8.1 mphMostly Cloudy
5:00 PM73.4 °F62.6 °F69 %29.95 in6.2 miSSW (200°)9.2 mphMostly Cloudy
5:30 PM75.2 °F62.6 °F65 %29.95 in6.2 miSSW (200°)9.2 mphMostly Cloudy
6:00 PM75.2 °F62.6 °F65 %29.95 in6.2 miSSW (200°)13.8 mphMostly Cloudy
6:30 PM73.4 °F62.6 °F69 %29.92 in6.2 miSSW (210°)15.0 mph
7:00 PM73.4 °F62.6 °F69 %29.95 in6.2 miSouth (190°)10.4 mph
7:30 PM73.4 °F62.6 °F69 %29.95 in6.2 miSouth (180°)6.9 mphOvercast
8:00 PM71.6 °F62.6 °F73 %29.95 in6.2 miSouth (180°)9.2 mphMostly Cloudy
8:30 PM73.4 °F62.6 °F69 %29.95 in6.2 miSSE (160°)5.8 mph
9:00 PM71.6 °F62.6 °F73 %29.95 in6.2 miSouth (170°)6.9 mph
9:30 PM69.8 °F62.6 °F78 %29.95 in6.2 miSouth (170°)4.6 mph
10:00 PM69.8 °F62.6 °F78 %29.98 in6.2 miSouth (190°)3.5 mphOvercast
10:30 PM69.8 °F62.6 °F78 %29.98 in6.2 miSouth (180°)3.5 mphOvercast
11:00 PM69.8 °F62.6 °F78 %29.98 in6.2 miSouth (190°)4.6 mphOvercast
11:30 PM69.8 °F62.6 °F78 %29.98 in6.2 miSouth (180°)3.5 mphOvercast
Hourly data recorded from LFMV, located miles away from Avignon, France







STORIES FROM OUR PARTNERS